Find Qianfan Jigui 06-02

NORAD ID: 62786 Int'l Des: 2025-016 Owner: YUANX Country: CN Constellation: spacesail operational
LEOCIRCULARPOLAR

Current View

Loading 3D Globe...

About Qianfan Jigui 06-02

Description loading...

Upcoming Passes

Passes for default location (London). Set your location on the main map for personalized predictions.

Altitude History

Loading altitude history...

Two-Line Element Set

1 62786U 25016B 26146.28705345 .00000100 00000-0 13567-3 0 9992
2 62786 88.9708 85.9378 0013812 231.7738 128.2170 13.51014350 69455
Epoch: May 26, 2026 • Age: 12 hours

Current Status

Altitude 1086.8 km
Velocity 7.31 km/s
Sub-Earth Point -75.91°S, 103.36°E
Launch Date Jan 23, 2025
Age 1.3 years
Type internet

Technical Details

Classification Payload
Mass 267.00 kg
Dry Mass 267.00 kg
Total Mass 267.00 kg
Length 0.30 m
Diameter 3.00 m
Span 10.00 m
Shape Box+pan
Manufacturer SECM
Bus Type Qianfan
Phase Status In Orbit
Owner/State YUANX/CN

Most Searched